Retour au catalogue

STARLINK-34178

ActifCommunicationsVLEO
NORAD 64096·PAYLOAD·🇺🇸 United States

Lancé May 23, 2025 depuis Vandenberg Space Force Base

Loading…

Prochains Passages (prochaines 24 heures)

TLE

FraisSource: CelesTrak SupGP

Époque: Sep 15, 2026, 02:19 UTC

1 64096C 25110A   26258.09701389 -.00039920  00000+0 -12836-2 0  2588
2 64096  53.1587 226.3012 0001418  86.8691 186.7615 15.31724797    15

Suivez STARLINK-34178 en temps réel avec AllMySat

Download on the App Store